Location: Northcutt
(34.7304°N, 84.4305°W)
Time: 09:38:28
(UTC+00:00)

S-56A Canister/Altair - Pass Details

Date: 03 October 2022
Orbit: 638 x 2494 km, 38.9° (Epoch: 08 December)

Event Time Altitude Azimuth Distance (km) Brightness Sun altitude
Rises 11:23:58 0° 289° (WNW) 4,440 - -2.9°
Exits shadow 11:24:32 - 289° (WNW) 4,237 10.7 -2.8°
Reaches altitude 10° 11:27:26 10° 289° (WNW) 3,167 10.1 -2.2°
Maximum altitude 11:34:47 79° 204° (SSW) 914 8.0 -0.7°
Drops below altitude 10° 11:39:52 10° 118° (ESE) 2,230 11.4 0.4°
Sets 11:41:57 0° 117° (ESE) 3,047 12.2 0.8°
